GW0977 Weather Reports


Display with metric or nautical units.
time (UTC)temp
F
wind
direction
speed
MPH
gust
MPH
rain 1hr
in
rain 24hr
in
rain mn
in
humidity
%
barometer
mb
20260507213107 68 194 7.0 19.0 0.00 0.00 0.00 40 1010.5
20260507211600 68 241 8.0 19.0 0.00 0.00 0.00 38 1010.6
20260507210100 66 175 10.0 20.0 0.00 0.00 0.00 40 1010.8
20260507204603 67 234 8.0 19.0 0.00 0.00 0.00 40 1010.9
20260507203100 69 216 6.0 20.0 0.00 0.00 0.00 40 1011.0
20260507201604 67 230 13.0 26.0 0.00 0.00 0.00 38 1011.1
20260507200100 67 239 10.0 23.0 0.00 0.00 0.00 40 1011.3
20260507194603 67 240 10.0 31.0 0.00 0.00 0.00 42 1011.5
20260507193100 67 215 9.0 24.0 0.00 0.00 0.00 42 1011.7
20260507191617 67 228 9.0 22.0 0.00 0.00 0.00 43 1011.8
20260507190101 67 169 9.0 23.0 0.00 0.00 0.00 43 1012.0
20260507184606 66 187 9.0 24.0 0.00 0.00 0.00 43 1012.1
20260507183104 65 215 10.0 23.0 0.00 0.00 0.00 44 1012.3
20260507181556 65 267 10.0 24.0 0.00 0.00 0.00 44 1012.5
20260507174559 64 252 9.0 20.0 0.00 0.00 0.00 45 1012.9
20260507173058 64 232 10.0 21.0 0.00 0.00 0.00 45 1013.2
20260507171557 63 223 8.0 21.0 0.00 0.00 0.00 47 1013.4
20260507170059 63 214 10.0 25.0 0.00 0.00 0.00 47 1013.8
20260507164636 62 236 11.0 19.0 0.00 0.00 0.00 47 1014.0
20260507163100 62 248 8.0 20.0 0.00 0.00 0.00 49 1014.0
20260507161608 61 227 8.0 17.0 0.00 0.00 0.00 51 1014.1
20260507160059 61 277 8.0 17.0 0.00 0.00 0.00 52 1014.2
20260507154557 60 242 11.0 22.0 0.00 0.00 0.00 52 1014.5
20260507153111 59 236 7.0 22.0 0.00 0.00 0.00 55 1014.6
20260507151609 58 276 10.0 22.0 0.00 0.00 0.00 56 1014.6
20260507150108 57 253 10.0 20.0 0.00 0.00 0.00 57 1014.6
20260507144605 57 279 8.0 16.0 0.00 0.00 0.00 61 1014.8
20260507143111 56 265 5.0 14.0 0.00 0.00 0.00 62 1014.9
20260507141624 54 244 5.0 17.0 0.00 0.00 0.00 67 1014.9
20260507140104 53 284 6.0 15.0 0.00 0.00 0.00 69 1015.0
20260507134617 51 209 6.0 11.0 0.00 0.00 0.00 71 1015.1
20260507133109 49 205 5.0 12.0 0.00 0.00 0.00 73 1015.3
20260507131613 48 206 4.0 11.0 0.00 0.00 0.00 74 1015.2
20260507130101 47 176 2.0 9.0 0.00 0.00 0.00 75 1015.3
20260507124559 45 192 4.0 9.0 0.00 0.00 0.00 77 1015.1
20260507123126 43 159 3.0 6.0 0.00 0.00 0.00 77 1015.2
20260507121557 42 155 2.0 6.0 0.00 0.00 0.00 77 1015.2
20260507120057 41 0 2.0 5.0 0.00 0.00 0.00 78 1015.2
20260507114559 40 360 3.0 5.0 0.00 0.00 0.00 79 1015.1
20260507113058 39 360 1.0 4.0 0.00 0.00 0.00 79 1015.2
20260507111557 39 360 1.0 5.0 0.00 0.00 0.00 78 1015.1
20260507110057 40 360 1.0 4.0 0.00 0.00 0.00 77 1015.1
20260507104601 40 360 2.0 5.0 0.00 0.00 0.00 76 1015.0
20260507103058 40 360 2.0 5.0 0.00 0.00 0.00 76 1015.0
20260507101557 40 360 2.0 5.0 0.00 0.00 0.00 76 1015.1
20260507100100 40 360 3.0 5.0 0.00 0.00 0.00 75 1015.1
20260507094554 41 360 3.0 8.0 0.00 0.00 0.00 73 1015.3
20260507093058 41 360 3.0 10.0 0.00 0.00 0.00 72 1015.4
20260507091557 42 360 4.0 9.0 0.00 0.00 0.00 71 1015.4
20260507084559 42 360 3.0 6.0 0.00 0.00 0.00 68 1015.6
20260507083059 42 360 2.0 6.0 0.00 0.00 0.00 67 1015.7
20260507081602 42 360 2.0 5.0 0.00 0.00 0.00 68 1015.9
20260507080120 43 360 2.0 6.0 0.00 0.00 0.00 66 1015.8
20260507074600 43 360 1.0 5.0 0.00 0.00 0.00 64 1015.9
20260507073059 44 360 1.0 5.0 0.00 0.00 0.00 63 1016.0
20260507071604 44 360 1.0 4.0 0.00 0.00 0.00 63 1016.2
20260507070105 44 360 0.0 4.0 0.00 0.00 0.00 61 1016.4
20260507064634 45 360 1.0 3.0 0.00 0.00 0.00 59 1016.6
20260507063122 45 360 2.0 4.0 0.00 0.00 0.00 58 1016.7
20260507061558 45 360 1.0 3.0 0.00 0.00 0.00 57 1016.8
20260507060113 46 0 1.0 3.0 0.00 0.00 0.00 58 1017.0
20260507054607 46 360 1.0 4.0 0.00 0.00 0.00 55 1017.1
20260507053110 47 360 1.0 4.0 0.00 0.00 0.00 55 1017.2
20260507051608 47 360 1.0 4.0 0.00 0.00 0.00 54 1017.1
20260507044601 48 360 2.0 5.0 0.00 0.00 0.00 50 1017.1
20260507043058 48 360 1.0 4.0 0.00 0.00 0.00 51 1017.2
20260507041559 49 360 2.0 5.0 0.00 0.00 0.00 50 1017.3
20260507040058 50 360 1.0 3.0 0.00 0.00 0.00 45 1017.2
20260507034600 48 0 0.0 2.0 0.00 0.00 0.00 50 1017.4
20260507033058 48 0 0.0 0.0 0.00 0.00 0.00 51 1017.3
20260507031559 48 0 0.0 1.0 0.00 0.00 0.00 51 1017.2
20260507030100 49 0 0.0 2.0 0.00 0.00 0.00 51 1017.3
20260507024558 50 360 0.0 1.0 0.00 0.00 0.00 49 1017.3
20260507023100 50 0 0.0 1.0 0.00 0.00 0.00 48 1017.2
20260507021557 51 0 0.0 2.0 0.00 0.00 0.00 48 1017.0
20260507020119 52 0 0.0 1.0 0.00 0.00 0.00 44 1016.9
20260507014602 53 0 0.0 0.0 0.00 0.00 0.00 43 1016.8
20260507013102 54 0 0.0 0.0 0.00 0.00 0.00 39 1016.8
20260507011600 56 0 0.0 0.0 0.00 0.00 0.00 37 1016.7
20260507010111 56 0 0.0 2.0 0.00 0.00 0.00 35 1016.6
20260507004600 57 23 0.0 5.0 0.00 0.00 0.00 34 1016.7
20260507003059 58 337 1.0 9.0 0.00 0.00 0.00 33 1016.7
20260507001605 58 338 1.0 12.0 0.00 0.00 0.00 33 1016.8
20260507000058 58 322 5.0 12.0 0.00 0.00 0.00 32 1016.9
20260506234600 59 308 5.0 14.0 0.00 0.00 0.00 31 1016.8
20260506233100 59 313 2.0 11.0 0.00 0.00 0.00 32 1016.9
20260506231611 59 265 5.0 12.0 0.00 0.00 0.00 32 1016.9
20260506230121 59 304 5.0 14.0 0.00 0.00 0.00 31 1017.2
20260506224557 59 338 7.0 13.0 0.00 0.00 0.00 30 1017.1
20260506223100 59 306 3.0 15.0 0.00 0.00 0.00 31 1017.2
20260506221624 60 24 7.0 15.0 0.00 0.00 0.00 31 1017.2
20260506220129 59 272 6.0 15.0 0.00 0.00 0.00 31 1017.4
20260506214558 58 348 7.0 15.0 0.00 0.00 0.00 30 1017.3